Stations météo

réclame
Mon MeteoGroup
Vidsel, Suède (2154): Température de l'air & dewpoint: 11.07.2018 13:00:00 - 17.07.2018 13:00:00 (CEST)Vidsel, Suède (2154): Vitesse du vent & gusts: 11.07.2018 13:00:00 - 17.07.2018 13:00:00 (CEST)Vidsel, Suède (2154): Direction du vent: 11.07.2018 13:00:00 - 17.07.2018 13:00:00 (CEST)Vidsel, Suède (2154): reduced air pressure: 11.07.2018 13:00:00 - 17.07.2018 13:00:00 (CEST)Vidsel, Suède (2154): visibility: 11.07.2018 13:00:00 - 17.07.2018 13:00:00 (CEST)Vidsel, Suède (2154): Quantités de précipitations: 11.07.2018 13:00:00 - 17.07.2018 13:00:00 (CEST)
Date & Time tt [°C] td [°C] ff [km/h] ff [knt] fx [km/h] fx [knt] dd ppp [hPa] vv [km] rr [mm]
17.07.2018 13:00:00 28,5 13,2 13 7 18 10 ESE 1017,8 10 0,0
17.07.2018 12:00:00 28,0 13,5 11 6 22 12 ESE 1018,1 10 0,0
17.07.2018 11:00:00 26,4 13,2 11 6 18 10 ESE 1018,3 10 0,0
17.07.2018 10:00:00 25,1 13,9 9 5 18 10 E 1018,4 10 0,0
17.07.2018 09:00:00 24,1 13,9 9 5 14 8 ESE 1018,7 10 0,0
17.07.2018 08:00:00 21,8 13,7 8 4 11 6 E 1018,8 10 0,0
17.07.2018 07:00:00 20,1 14,2 2 1 4 2 - 1019,0 10 0,0
17.07.2018 06:00:00 16,7 13,4 2 1 4 2 - 1019,1 10 0,0
17.07.2018 05:00:00 14,6 12,3 2 1 4 2 WNW 1019,3 10 0,0
17.07.2018 04:00:00 12,8 11,4 2 1 4 2 - 1019,3 10 0,0
17.07.2018 03:00:00 13,3 11,5 0 0 4 2 N 1019,1 10 0,0
17.07.2018 02:00:00 14,5 12,0 4 2 7 4 NW 1018,8 10 0,0
17.07.2018 01:00:00 16,5 12,3 0 0 7 4 N 1018,5 10 0,0
17.07.2018 00:00:00 19,9 12,6 5 3 14 8 ESE 1018,0 10 0,0
16.07.2018 23:00:00 21,3 12,9 13 7 18 10 ESE 1017,3 10 0,0
16.07.2018 22:00:00 23,1 13,0 11 6 22 12 ESE 1016,8 10 0,0
16.07.2018 21:00:00 25,4 12,9 15 8 25 14 SE 1016,0 10 0,0
16.07.2018 20:00:00 27,5 11,5 13 7 18 10 ESE 1015,5 10 0,0
16.07.2018 19:00:00 27,9 11,4 13 7 18 10 ESE 1015,2 10 0,0
16.07.2018 18:00:00 28,0 11,1 11 6 22 12 E 1015,2 10 0,0
16.07.2018 17:00:00 28,1 10,8 9 5 22 12 - 1015,2 10 0,0
16.07.2018 16:00:00 28,2 10,4 5 3 18 10 - 1015,4 10 0,0
16.07.2018 15:00:00 26,8 9,6 8 4 14 8 ENE 1015,7 10 0,0
16.07.2018 14:00:00 25,9 10,1 8 4 14 8 - 1016,1 10 0,0
16.07.2018 13:00:00 24,8 9,9 8 4 14 8 - 1016,4 10 0,0
16.07.2018 12:00:00 23,4 9,8 8 4 22 12 NNW 1016,8 10 0,0
16.07.2018 11:00:00 22,8 10,2 8 4 22 12 WSW 1016,7 10 0,0
16.07.2018 10:00:00 21,3 10,8 4 2 14 8 - 1017,0 10 0,0
16.07.2018 09:00:00 19,9 10,3 9 5 18 10 - 1017,0 10 0,0
16.07.2018 08:00:00 19,0 11,1 5 3 14 8 - 1017,1 10 0,0
16.07.2018 07:00:00 17,5 11,5 5 3 11 6 NW 1017,2 10 0,0
16.07.2018 06:00:00 15,8 11,4 5 3 7 4 WNW 1017,3 10 0,0
16.07.2018 05:00:00 12,6 10,7 2 1 11 6 - 1017,5 10 0,0
16.07.2018 04:00:00 11,5 9,6 5 3 11 6 NW 1017,4 10 0,0
16.07.2018 03:00:00 12,1 9,8 4 2 11 6 - 1017,1 10 0,0
16.07.2018 02:00:00 13,5 10,1 2 1 11 6 - 1016,6 10 0,0
16.07.2018 01:00:00 15,5 10,7 5 3 18 10 NW 1016,0 10 0,0
16.07.2018 00:00:00 16,8 11,1 13 7 14 8 WNW 1015,7 10 0,0
15.07.2018 23:00:00 18,3 11,1 11 6 14 8 NW 1014,9 10 0,0
15.07.2018 22:00:00 20,5 11,1 8 4 18 10 NW 1014,0 10 0,0
15.07.2018 21:00:00 22,6 10,4 11 6 25 14 WNW 1013,3 10 0,0
15.07.2018 20:00:00 23,0 10,4 21 11 25 14 NW 1012,9 10 0,0
15.07.2018 19:00:00 23,5 10,2 18 10 32 18 WNW 1012,8 10 0,0
15.07.2018 18:00:00 24,6 9,7 16 9 36 19 NW 1012,2 10 0,0
15.07.2018 17:00:00 24,0 8,8 22 12 36 19 NW 1012,1 10 0,0
15.07.2018 16:00:00 23,9 7,9 18 10 32 18 NW 1012,0 10 0,0
15.07.2018 15:00:00 24,3 7,9 21 11 29 16 NW 1011,9 10 0,0
15.07.2018 14:00:00 23,4 9,0 21 11 32 18 WNW 1011,8 10 0,0
15.07.2018 13:00:00 23,2 11,3 18 10 29 16 NNW 1011,7 10 0,0
15.07.2018 12:00:00 23,6 11,6 15 8 25 14 WNW 1011,4 10 0,0
15.07.2018 11:00:00 23,5 11,5 8 4 14 8 NW 1011,2 10 0,0
15.07.2018 10:00:00 23,0 11,4 5 3 14 8 NW 1011,1 10 0,0
15.07.2018 09:00:00 22,1 11,2 5 3 7 4 NNW 1011,0 10 0,0
15.07.2018 08:00:00 19,8 11,8 2 1 4 2 - 1011,1 10 0,0
15.07.2018 07:00:00 17,3 11,3 4 2 7 4 - 1011,4 10 0,0
15.07.2018 06:00:00 15,4 11,6 2 1 7 4 - 1011,6 10 0,0
15.07.2018 05:00:00 12,0 9,9 2 1 7 4 WNW 1011,7 10 0,0
15.07.2018 04:00:00 10,6 9,7 2 1 4 2 - 1011,7 10 0,0
15.07.2018 03:00:00 10,7 9,8 4 2 7 4 W 1011,4 10 0,0
15.07.2018 02:00:00 11,9 11,1 4 2 7 4 WSW 1011,1 10 0,0
15.07.2018 01:00:00 13,0 11,7 2 1 4 2 - 1010,8 10 0,0
15.07.2018 00:00:00 15,1 12,8 2 1 7 4 - 1010,5 10 0,0
14.07.2018 23:00:00 17,6 13,3 5 3 7 4 E 1010,1 10 0,0
14.07.2018 22:00:00 22,5 14,1 4 2 11 6 - 1009,4 10 0,0
14.07.2018 21:00:00 23,1 14,1 8 4 14 8 SE 1008,9 10 0,0
14.07.2018 20:00:00 23,4 13,8 8 4 11 6 ESE 1008,8 10 0,0
14.07.2018 19:00:00 24,7 12,6 5 3 11 6 SE 1008,7 10 0,0
14.07.2018 18:00:00 24,9 11,8 11 6 18 10 ENE 1008,8 10 0,0
14.07.2018 17:00:00 25,9 12,0 8 4 11 6 SSE 1008,8 10 0,0
14.07.2018 16:00:00 25,2 11,4 5 3 14 8 S 1009,1 10 0,0
14.07.2018 15:00:00 24,1 12,4 9 5 14 8 - 1009,4 10 0,0
14.07.2018 14:00:00 21,7 14,1 4 2 25 14 - 1010,2 10 0,4
14.07.2018 13:00:00 23,4 12,1 5 3 14 8 - 1010,3 10 0,0
14.07.2018 12:00:00 24,0 12,9 8 4 14 8 N 1010,4 10 0,0
14.07.2018 11:00:00 22,6 14,4 5 3 11 6 - 1010,8 10 0,0
14.07.2018 10:00:00 21,0 15,3 2 1 11 6 - 1011,4 10 0,0
14.07.2018 09:00:00 18,7 15,4 4 2 7 4 - 1011,9 10 0,0
14.07.2018 08:00:00 15,4 14,9 0 0 4 2 N 1012,4 10 0,0
14.07.2018 07:00:00 12,8 12,8 2 1 4 2 - 1013,0 1,3 0,0
14.07.2018 06:00:00 10,7 10,7 2 1 7 4 - 1013,3 0,1 0,0
14.07.2018 05:00:00 9,6 9,6 4 2 7 4 NW 1013,3 0,4 0,0
14.07.2018 04:00:00 9,7 9,7 0 0 4 2 N 1013,3 0,1 0,0
14.07.2018 03:00:00 10,7 10,7 5 3 7 4 NW 1013,4 0,1 0,0
14.07.2018 02:00:00 9,7 9,6 2 1 4 2 - 1013,7 0,3 0,0
14.07.2018 01:00:00 10,5 10,3 4 2 4 2 W 1013,8 1,7 0,0
14.07.2018 00:00:00 11,3 11,1 2 1 4 2 - 1013,7 0,5 0,0
13.07.2018 23:00:00 12,9 12,6 0 0 - - N 1013,4 - 0,0
13.07.2018 22:00:00 13,9 13,6 - - - - - 1013,7 - 0,0
13.07.2018 21:00:00 14,4 13,9 - - - - - 1013,5 - 0,0
13.07.2018 20:00:00 15,7 14,6 - - - - - 1013,5 - -
13.07.2018 19:00:00 15,7 14,2 - - - - - 1013,5 - 0,0
13.07.2018 18:00:00 16,3 14,0 28 15 50 27 NNE 1014,0 5 9,0
13.07.2018 17:00:00 24,3 11,3 5 3 14 8 SSW 1012,3 10 0,0
13.07.2018 16:00:00 24,4 10,7 4 2 22 12 - 1012,2 10 0,0
13.07.2018 15:00:00 24,0 9,6 15 8 25 14 SSE 1012,7 10 0,0
13.07.2018 14:00:00 24,7 9,8 18 10 32 18 S 1012,7 10 0,0
13.07.2018 13:00:00 26,4 9,3 13 7 25 14 SE 1012,6 10 0,0
13.07.2018 12:00:00 24,2 10,5 13 7 22 12 S 1013,1 10 0,0
13.07.2018 11:00:00 25,1 10,9 11 6 22 12 SSE 1013,4 10 0,0
13.07.2018 10:00:00 23,9 12,5 4 2 14 8 - 1013,6 10 0,0
13.07.2018 09:00:00 21,6 12,2 4 2 7 4 - 1014,0 10 0,0
13.07.2018 08:00:00 19,0 11,3 2 1 7 4 - 1014,6 10 0,0
13.07.2018 07:00:00 17,1 10,7 2 1 7 4 - 1015,0 10 0,0
13.07.2018 06:00:00 13,9 9,7 5 3 7 4 NW 1015,1 10 0,0
13.07.2018 05:00:00 11,3 8,3 2 1 7 4 NNW 1015,3 10 0,0
13.07.2018 04:00:00 10,4 7,6 0 0 4 2 N 1015,6 10 0,0
13.07.2018 03:00:00 9,6 7,5 2 1 4 2 - 1015,7 10 0,0
13.07.2018 02:00:00 11,2 8,2 2 1 4 2 WNW 1015,7 10 0,0
13.07.2018 01:00:00 13,2 8,7 4 2 11 6 - 1015,5 10 0,0
13.07.2018 00:00:00 17,0 6,8 9 5 14 8 ESE 1015,4 10 0,0
12.07.2018 23:00:00 18,0 6,2 11 6 18 10 SE 1015,4 10 0,0
12.07.2018 22:00:00 20,4 6,0 13 7 22 12 ESE 1015,2 10 0,0
12.07.2018 21:00:00 22,0 6,2 15 8 29 16 SE 1014,6 10 0,0
12.07.2018 20:00:00 23,3 6,6 18 10 29 16 SE 1014,4 10 0,0
12.07.2018 19:00:00 24,5 6,3 21 11 29 16 SE 1014,3 10 0,0
12.07.2018 18:00:00 25,5 5,7 16 9 25 14 SSE 1014,5 10 0,0
12.07.2018 17:00:00 25,9 6,0 18 10 29 16 SE 1014,6 10 0,0
12.07.2018 16:00:00 26,1 6,2 21 11 29 16 ESE 1014,8 10 0,0
12.07.2018 15:00:00 26,3 6,3 8 4 25 14 - 1015,3 10 0,0
12.07.2018 14:00:00 25,7 6,8 13 7 25 14 ESE 1015,8 10 0,0
12.07.2018 13:00:00 25,8 6,9 13 7 25 14 SSE 1016,3 10 0,0
12.07.2018 12:00:00 24,6 6,8 16 9 25 14 SE 1016,9 10 0,0
12.07.2018 11:00:00 24,0 7,2 11 6 25 14 - 1017,2 10 0,0
12.07.2018 10:00:00 23,2 6,9 11 6 25 14 SE 1017,7 10 0,0
12.07.2018 09:00:00 22,1 7,9 9 5 18 10 SE 1018,1 10 0,0
12.07.2018 08:00:00 20,4 8,1 5 3 11 6 ESE 1018,7 10 0,0
12.07.2018 07:00:00 18,4 10,7 0 0 4 2 N 1019,0 10 0,0
12.07.2018 06:00:00 13,8 9,2 2 1 4 2 - 1019,8 10 0,0
12.07.2018 05:00:00 11,3 8,2 2 1 4 2 - 1020,4 10 0,0
12.07.2018 04:00:00 9,4 7,2 0 0 4 2 N 1020,5 10 0,0
12.07.2018 03:00:00 10,2 7,3 2 1 4 2 WNW 1020,6 10 0,0
12.07.2018 02:00:00 12,2 8,9 0 0 4 2 N 1020,4 10 0,0
12.07.2018 01:00:00 14,2 8,2 0 0 4 2 N 1020,4 10 0,0
12.07.2018 00:00:00 16,5 8,2 2 1 7 4 - 1020,3 10 0,0
11.07.2018 23:00:00 19,1 8,1 4 2 7 4 SE 1020,1 10 0,0
11.07.2018 22:00:00 22,3 7,3 8 4 14 8 SSE 1019,7 10 0,0
11.07.2018 21:00:00 24,2 7,3 11 6 22 12 SSE 1019,5 10 0,0
11.07.2018 20:00:00 25,5 8,0 15 8 25 14 SE 1019,2 10 0,0
11.07.2018 19:00:00 26,3 8,3 15 8 25 14 SE 1019,2 10 0,0
11.07.2018 18:00:00 27,1 8,0 16 9 25 14 SE 1019,3 10 0,0
11.07.2018 17:00:00 27,6 7,4 15 8 25 14 S 1019,3 10 0,0
11.07.2018 16:00:00 28,0 8,3 11 6 29 16 SSE 1019,6 10 0,0
11.07.2018 15:00:00 27,6 7,4 16 9 29 16 S 1020,0 10 0,0
11.07.2018 14:00:00 26,9 8,8 15 8 22 12 SE 1020,6 10 0,0
11.07.2018 13:00:00 27,6 8,9 13 7 25 14 SSE 1020,8 10 0,0

tt = Température de l'air
td = dewpoint
ff = Vitesse du vent
fx = gusts
dd = Direction du vent
ppp = reduced air pressure
vv = visibility
rr = Quantités de précipitations

stations d'obs. à proximité